TimeEDT,TemperatureF,Dew PointF,Humidity,Sea Level PressureIn,VisibilityMPH,Wind Direction,Wind SpeedMPH,Gust SpeedMPH,PrecipitationIn,Events,Conditions,WindDirDegrees,DateUTC
12:53 AM,73.0,66.0,79,29.82,10.0,Calm,Calm,-,N/A,,Scattered Clouds,0,2013-08-31 04:53:00
1:53 AM,72.0,66.0,81,29.80,10.0,South,4.6,-,N/A,,Clear,190,2013-08-31 05:53:00
2:53 AM,71.1,66.0,84,29.81,10.0,South,3.5,-,N/A,,Partly Cloudy,180,2013-08-31 06:53:00
3:53 AM,72.0,66.0,81,29.80,10.0,Calm,Calm,-,N/A,,Mostly Cloudy,0,2013-08-31 07:53:00
4:53 AM,71.1,66.9,87,29.83,7.0,Calm,Calm,-,0.01,Rain,Light Rain,0,2013-08-31 08:53:00
5:53 AM,70.0,66.9,90,29.84,8.0,SW,5.8,-,0.05,Rain,Light Rain,230,2013-08-31 09:53:00
6:53 AM,69.1,68.0,96,29.83,7.0,South,3.5,-,0.02,,Mostly Cloudy,190,2013-08-31 10:53:00
7:53 AM,70.0,68.0,93,29.84,8.0,SSW,3.5,-,N/A,,Mostly Cloudy,200,2013-08-31 11:53:00
8:22 AM,69.8,68.0,94,29.81,2.0,ESE,6.9,-,0.05,Rain,Heavy Rain,110,2013-08-31 12:22:00
8:31 AM,69.8,68.0,94,29.81,4.0,South,5.8,-,0.05,Rain,Light Rain,180,2013-08-31 12:31:00
8:53 AM,70.0,69.1,97,29.84,4.0,South,6.9,-,0.06,Rain,Light Rain,170,2013-08-31 12:53:00
9:53 AM,71.1,70.0,96,29.84,3.0,Variable,3.5,-,0.00,,Overcast,0,2013-08-31 13:53:00
10:13 AM,71.6,69.8,94,29.82,3.0,SSW,4.6,-,N/A,,Overcast,200,2013-08-31 14:13:00
10:22 AM,71.6,69.8,94,29.82,3.0,SSW,5.8,-,N/A,,Overcast,210,2013-08-31 14:22:00
10:53 AM,73.0,70.0,90,29.84,4.0,South,4.6,-,N/A,,Overcast,190,2013-08-31 14:53:00
11:53 AM,75.0,71.1,87,29.84,4.0,SW,3.5,-,0.00,,Overcast,230,2013-08-31 15:53:00
12:42 PM,77.0,71.6,83,29.80,4.0,Variable,3.5,-,N/A,,Haze,0,2013-08-31 16:42:00
12:53 PM,77.0,71.1,82,29.83,4.0,South,3.5,-,N/A,,Haze,180,2013-08-31 16:53:00
1:18 PM,78.8,71.6,78,29.79,4.0,SSW,8.1,-,N/A,,Haze,200,2013-08-31 17:18:00
1:53 PM,79.0,71.1,77,29.82,7.0,Variable,5.8,-,N/A,,Mostly Cloudy,0,2013-08-31 17:53:00
2:53 PM,80.1,72.0,76,29.81,8.0,South,8.1,-,N/A,,Overcast,190,2013-08-31 18:53:00
3:12 PM,80.6,71.6,74,29.78,8.0,South,6.9,-,N/A,,Mostly Cloudy,170,2013-08-31 19:12:00
3:53 PM,80.1,72.0,76,29.80,10.0,SSE,8.1,-,N/A,,Overcast,160,2013-08-31 19:53:00
4:53 PM,80.1,72.0,76,29.80,10.0,South,9.2,-,N/A,,Overcast,180,2013-08-31 20:53:00
5:03 PM,80.6,71.6,74,29.76,10.0,South,6.9,-,N/A,,Overcast,170,2013-08-31 21:03:00
5:15 PM,80.6,71.6,74,29.76,10.0,South,6.9,-,N/A,,Mostly Cloudy,170,2013-08-31 21:15:00
5:53 PM,79.0,72.0,79,29.78,10.0,South,9.2,-,N/A,,Mostly Cloudy,190,2013-08-31 21:53:00
6:53 PM,77.0,72.0,84,29.80,8.0,South,5.8,-,N/A,,Mostly Cloudy,180,2013-08-31 22:53:00
7:24 PM,77.0,71.6,83,29.76,8.0,South,8.1,-,N/A,,Overcast,180,2013-08-31 23:24:00
7:53 PM,75.9,71.1,85,29.80,8.0,South,5.8,-,N/A,,Mostly Cloudy,180,2013-08-31 23:53:00
8:53 PM,75.0,71.1,87,29.81,8.0,South,6.9,-,N/A,,Mostly Cloudy,180,2013-09-01 00:53:00
9:25 PM,75.2,71.6,89,29.79,8.0,South,3.5,-,N/A,,Mostly Cloudy,180,2013-09-01 01:25:00
9:53 PM,75.0,71.1,87,29.82,8.0,South,3.5,-,N/A,,Mostly Cloudy,170,2013-09-01 01:53:00
10:53 PM,75.0,71.1,87,29.81,8.0,South,8.1,-,N/A,,Overcast,190,2013-09-01 02:53:00
11:15 PM,75.2,71.6,89,29.79,8.0,South,5.8,-,N/A,,Overcast,190,2013-09-01 03:15:00
11:53 PM,73.9,71.1,91,29.82,7.0,South,5.8,-,N/A,,Mostly Cloudy,180,2013-09-01 03:53:00